[[{"header":{"parameterUnit":"m.s-1","parameterCategory":1,"la1":30.2992,"la2":30.254,"lo1":-89.0895,"lo2":-89.0443,"dy":0.0025,"dx":0.0025,"nx":19,"ny":19,"refTime":"2026-03-07T03:00:00:Z","depth":0,"parameterNumber":2,"parameterNumberName":"U-component_of_WINDS"},"data":[0,0,0,-4.7913,-4.7916,-4.8027,-4.8027,-4.8176,-4.8178,0,0,0,0,0,0,0,0,0,0,0,-4.7885,-4.7886,-4.7913,-4.7916,-4.8027,-4.8028,-4.8176,-4.8178,0,0,0,0,0,0,0,0,0,0,0,-4.7884,-4.7886,-4.7887,-4.7916,-4.8027,-4.8028,-4.8176,-4.8089,0,0,0,0,0,0,0,0,0,0,-4.7979,-4.7959,-4.7886,-4.7887,-4.7917,-4.8027,-4.8028,-4.8085,-4.8094,-4.8129,0,-4.8162,0,-4.8172,-4.8188,-4.8189,0,0,0,-4.7911,-4.7951,-4.7977,-4.7888,-4.7918,-4.8027,-4.7976,-4.809,-4.8101,-4.8142,-4.8164,-4.8169,-4.8175,-4.8189,-4.819,-4.8406,-4.8407,0,0,-4.7905,-4.7907,-4.7969,-4.7984,-4.7969,-4.7972,-4.7979,-4.8096,-4.812,-4.8164,-4.8173,-4.8177,-4.819,-4.8191,-4.8405,-4.8407,0,0,0,-4.7891,-4.7903,-4.7926,-4.7978,-4.7998,-4.7975,-4.7984,-4.8115,-4.8122,-4.8174,-4.8179,-4.8191,-4.8193,-4.8404,-4.8406,-4.8466,0,0,0,-4.7887,-4.7894,-4.7923,-4.7926,-4.7996,-4.8058,-4.8,-4.8114,-4.8127,-4.8178,-4.8191,-4.8194,-4.8402,-4.8405,-4.8462,-4.8493,0,0,0,-4.7876,-4.7893,-4.7911,-4.7925,-4.7974,-4.8056,-4.807,-4.8117,-4.8131,-4.8189,-4.8195,-4.8402,-4.8404,-4.8458,-4.8487,-4.855,0,0,0,-4.7864,-4.7963,-4.7912,-4.8025,-4.7973,-4.8094,-4.8069,-4.8159,-4.8217,-4.8192,-4.8403,-4.8405,-4.8457,-4.8483,-4.8545,-4.8601,-4.8625,0,0,-4.799,-4.7978,-4.8044,-4.8002,-4.8133,-4.8077,-4.8217,-4.8267,-4.827,-4.836,-4.8366,-4.8463,-4.8486,-4.8549,-4.8765,-4.8784,0,0,0,-4.8084,-4.8131,-4.8166,-4.8221,-4.8264,-4.8302,-4.8331,-4.8349,-4.8426,-4.8317,-4.8505,-4.8518,-4.8555,-4.8581,-4.8597,-4.8627,-4.8419,-4.8418,-4.8418,-4.8261,-4.8262,-4.8371,-4.8386,-4.844,-4.8471,-4.8514,-4.8544,-4.8528,-4.8573,-4.8598,-4.8729,-4.876,-4.8773,-4.8804,-4.863,-4.863,-4.8631,-4.8631,-4.8442,-4.8508,-4.8487,-4.8585,-4.8585,-4.8667,-4.8701,-4.8687,-4.8762,-4.871,-4.8742,-4.8682,-4.8794,-4.8821,-4.8635,-4.8635,-4.8634,-4.8633,-4.8633,-4.8555,-4.8586,-4.861,-4.8691,-4.8754,-4.8766,-4.884,-4.8838,-4.8837,-4.8869,-4.8895,-4.8893,-4.889,-4.8882,-4.8883,-4.8883,-4.8884,-4.8884,-4.8884,-4.8661,-4.8686,-4.8749,-4.8804,-4.884,-4.8887,-4.8921,-4.8956,-4.8994,-4.8986,-4.8986,-4.8965,-4.8806,-4.8764,-4.8891,-4.889,-4.8889,-4.8888,-4.8888,-4.8838,-4.8799,-4.8896,-4.8932,-4.8997,-4.9059,-4.9058,-4.913,-4.9159,-4.9195,-4.9169,-4.9053,-4.9039,-4.9026,-4.8991,-4.9169,-4.9169,-4.9169,-4.9169,-4.8931,-4.8926,-4.9025,-4.9084,-4.9141,-4.915,-4.9259,-4.9287,-4.9309,-4.9327,-4.9302,-4.9257,-4.9244,-4.9239,-4.9221,-4.9188,-4.9412,-4.9412,-4.9413,-4.9039,-4.904,-4.9132,-4.9156,-4.9207,-4.9251,-4.9353,-4.942,-4.9437,-4.9422,-4.934,-4.933,-4.9257,-4.9234,-4.9213,-4.9186,-4.9126,0,0]},{"header":{"parameterUnit":"m.s-1","parameterCategory":1,"la1":30.2992,"la2":30.254,"lo1":-89.0895,"lo2":-89.0443,"dy":0.0025,"dx":0.0025,"nx":19,"ny":19,"refTime":"2026-03-07T03:00:00:Z","depth":0,"parameterNumber":3,"parameterNumberName":"V-component_of_WINDS"},"data":[0,0,0,2.1948,2.195,2.2058,2.2059,2.2183,2.2184,0,0,0,0,0,0,0,0,0,0,0,2.1907,2.1907,2.1948,2.195,2.2058,2.2059,2.2183,2.2184,0,0,0,0,0,0,0,0,0,0,0,2.1906,2.1907,2.1908,2.1951,2.2058,2.2059,2.2183,2.2106,0,0,0,0,0,0,0,0,0,0,2.2004,2.1956,2.1907,2.1908,2.1951,2.2058,2.2059,2.2103,2.2111,2.2128,0,2.214,0,2.2164,2.2191,2.2192,0,0,0,2.1957,2.1949,2.1987,2.1908,2.1952,2.2058,2.2011,2.2107,2.2117,2.2139,2.2142,2.2147,2.2166,2.2192,2.2193,2.2271,2.2271,0,0,2.1951,2.1921,2.1981,2.1993,2.1974,2.2008,2.2015,2.2113,2.2115,2.2143,2.215,2.2168,2.2193,2.2194,2.2271,2.2271,0,0,0,2.1929,2.1916,2.1952,2.1987,2.2008,2.2011,2.2019,2.211,2.2125,2.2152,2.217,2.2193,2.2195,2.2271,2.2271,2.2245,0,0,0,2.1926,2.1904,2.1949,2.1932,2.2005,2.206,2.2013,2.2118,2.213,2.2169,2.2194,2.2196,2.2271,2.2271,2.2246,2.2238,0,0,0,2.1903,2.1901,2.1914,2.193,2.1975,2.2059,2.2079,2.2121,2.2141,2.2192,2.2196,2.2271,2.2271,2.2247,2.2239,2.2252,0,0,0,2.1869,2.1887,2.1913,2.194,2.1974,2.2042,2.2079,2.2131,2.2172,2.2194,2.2271,2.2271,2.2247,2.224,2.2252,2.2258,2.2257,0,0,2.1875,2.1886,2.1905,2.1932,2.1988,2.2028,2.2082,2.2147,2.2178,2.2239,2.2241,2.2246,2.2239,2.2252,2.2262,2.2261,0,0,0,2.1897,2.191,2.1932,2.197,2.2022,2.2067,2.2128,2.2153,2.2206,2.2203,2.2254,2.2251,2.226,2.2264,2.2264,2.2275,2.2271,2.2271,2.2271,2.186,2.1903,2.1938,2.1995,2.2032,2.2097,2.2132,2.2178,2.2206,2.2219,2.2236,2.2237,2.2241,2.2241,2.2252,2.2242,2.2242,2.2242,2.2242,2.1874,2.19,2.1944,2.1994,2.204,2.2082,2.2147,2.2168,2.2215,2.2226,2.2236,2.2245,2.2239,2.2251,2.224,2.2241,2.2241,2.2241,2.2241,2.1855,2.1876,2.1908,2.1972,2.2016,2.2074,2.2119,2.2158,2.2195,2.2205,2.2231,2.2232,2.2239,2.2215,2.2215,2.2215,2.2215,2.2215,2.2215,2.1823,2.186,2.1894,2.1954,2.1987,2.2035,2.2105,2.2138,2.2186,2.2211,2.2211,2.2242,2.223,2.2227,2.2215,2.2215,2.2215,2.2215,2.2215,2.1822,2.183,2.1881,2.1914,2.1992,2.2036,2.2087,2.2153,2.2187,2.2209,2.2239,2.2223,2.2237,2.2238,2.2236,2.2228,2.2228,2.2228,2.2228,2.1807,2.1819,2.1883,2.1935,2.199,2.2043,2.2103,2.2159,2.2218,2.2243,2.225,2.225,2.2249,2.2265,2.2265,2.2264,2.2263,2.2263,2.2263,2.181,2.183,2.1872,2.1932,2.1997,2.2052,2.2111,2.217,2.2238,2.2265,2.2264,2.2262,2.2263,2.2261,2.2286,2.2285,2.2284,0,0]}]]